Regional Weather Roundup
Issued by NWS

Home | Current Version | Previous Version | Text Only | Print | Product List | Glossary On
Versions: 1 2 3 4 5 6 7 8 9 10 11 12 13 14 15 16 17 18 19 20 21 22 23 24 25 26 27 28 29 30 31 32 33 34 35 36 37 38 39 40 41 42 43 44 45 46 47
000
ASUS43 KDMX 201407
RWRIA

WEATHER ROUNDUP FOR IOWA
NATIONAL WEATHER SERVICE DES MOINES IA
900 AM CDT WED AUG 20 2014

NOTE: "FAIR" INDICATES FEW OR NO CLOUDS BELOW 12,000 FEET WITH NO
SIGNIFICANT WEATHER AND/OR OBSTRUCTIONS TO VISIBILITY.

* - THESE STATIONS ARE NOT NWS STATIONS...THUS NOT UNDER NWS
QUALITY CONTROL.  THEY ALSO DO NOT REPORT WEATHER SUCH
AS PRECIPITATION OR FOG.

IAZ001>003-012>014-020>022-031>034-043>046-201500-
   NORTHWEST IOWA

CITY           SKY/WX    TMP DP  RH WIND       PRES   REMARKS
CARROLL *      CLOUDY    68  68 100 SW7       29.92R FOG
CHEROKEE *     CLOUDY    68  68 100 S8        29.82R
DENISON *      CLOUDY    68  68 100 E12       29.84F
LE MARS *      MOSUNNY   70  68  94 CALM      29.82R
ORANGE CITY *  SUNNY     72  66  83 S6        29.82R
SHELDON *      SUNNY     70  68  94 NE6G12    29.80R
SIOUX CITY     CLOUDY    71  66  84 S7        29.82R
SPENCER        CLOUDY    69  66  90 E8        29.80F
STORM LAKE *   SUNNY     66  66 100 S10       29.84R
$$

IAZ055>058-069>071-079>083-090>094-201500-
   SOUTHWEST IOWA

CITY           SKY/WX    TMP DP  RH WIND       PRES   REMARKS
ATLANTIC *     SUNNY     70  66  88 E7        29.88R
AUDUBON *      CLOUDY    70  66  88 CALM      29.93R
CLARINDA *     SUNNY     75  72  88 CALM      29.87R
COUNCIL BLFS * SUNNY     72  70  94 NE12      29.85R
CRESTON *      SUNNY     68  64  88 E9        29.92F
HARLAN  *      PTSUNNY   70  68  94 NE5       29.93R
LAMONI         CLOUDY    69  65  86 N14       29.92R
RED OAK *      CLOUDY    75  70  83 NE7       29.87R
SHENANDOAH *   SUNNY     75  72  88 SE5       29.84R
$$

IAZ047>049-059>061-072>074-084-201500-
   CENTRAL IOWA

CITY           SKY/WX    TMP DP  RH WIND       PRES   REMARKS
AMES           LGT RAIN  68  68 100 S10       29.89R FOG
ANKENY *       LGT RAIN  68  66  94 W5G13     29.92R
CHARITON *     LGT RAIN  68  66  94 N8G15     29.94R
DES MOINES     TSTM      68  65  90 W10       29.94R FOG
GRINNELL*      RAIN      68  64  88 CALM      29.92R
KNOXVILLE *    LGT RAIN  68  66  94 W6G13     29.93R
MARSHALLTOWN   CLOUDY    66  65  96 SE8       29.87F
PELLA *        RAIN      70  68  94 SW7       29.94R
PERRY *        LGT RAIN  66  66 100 CALM      29.89S
$$

IAZ004>006-015-016-023>025-035-036-201500-
   NORTH CENTRAL IOWA

CITY           SKY/WX    TMP DP  RH WIND       PRES   REMARKS
ALGONA *       CLOUDY    66  66 100 SE6       29.86F
CLARION *      PTSUNNY   68  68 100 CALM      29.90R
ESTHERVILLE    CLOUDY    66  64  93 E7        29.84F
FORT DODGE *   CLOUDY    66  64  94 S7        29.87F
MASON CITY     CLOUDY    68  65  90 S3        29.90R
FOREST CITY *  PTSUNNY   64  64 100 CALM      29.89R
IOWA FALLS *   PTSUNNY   64  63  94 CALM      29.90R
$$

IAZ007>011-017>019-026>030-037>042-050>054-066-201500-
   NORTHEAST IOWA

CITY           SKY/WX    TMP DP  RH WIND       PRES   REMARKS
CEDAR RAPIDS   CLOUDY    67  66  97 CALM      29.89R
CHARLES CITY * SUNNY     68  66  94 SW3       29.90S
CLINTON *      MOSUNNY   72  66  83 W6        29.92R
DECORAH *      SUNNY     68  66  94 CALM      29.89R
DUBUQUE        PTSUNNY   70  66  87 W7        29.89R
MONTICELLO *   SUNNY     72  66  83 CALM      29.89R
OELWEIN *      SUNNY     68  66  94 CALM      29.91R
WATERLOO       CLOUDY    69  65  86 CALM      29.88R
$$

IAZ064-065-067-068-078-201500-
   EAST CENTRAL IOWA

CITY           SKY/WX    TMP DP  RH WIND       PRES   REMARKS
DAVENPORT      PTSUNNY   73  67  81 SW3       29.89S
IOWA CITY      CLOUDY    68  66  93 CALM      29.91R
MT. PLEASANT * LGT RAIN  68  66  94 SE6       29.87F
MUSCATINE *    PTSUNNY   72  66  83 SW6G13    29.91R
QUAD CITIES    PTSUNNY   73  65  75 SW3       29.89R
$$

IAZ062-063-075>077-085>089-095>099-201500-
   SOUTHEAST IOWA

CITY           SKY/WX    TMP DP  RH WIND       PRES   REMARKS
BURLINGTON     LGT RAIN  69  68  96 E7        29.90F
FAIRFIELD *    CLOUDY    68  66  94 SE5       29.87F
FORT MADISON * LGT RAIN  70  70 100 NE5       29.91F
KEOKUK *       LGT RAIN  70  68  94 N10       29.91R
OSKALOOSA *    LGT RAIN  68  66  94 W9        29.93R
CENTERVILLE *  LGT RAIN  66  66 100 NW14G22   29.94R
OTTUMWA        LGT RAIN  69  67  93 W15G21    29.90R
WASHINGTON *   SUNNY     68  68 100 NE7       29.87F
$$

ABBREVIATIONS USED IN REMARKS
   TC - TEMPERATURES IN CELSIUS
  WCI - WIND CHILL INDEX
   HX - HEAT INDEX
  VSB - VISIBILITY
$$




USA.gov is the U.S. government's official web portal to all federal, state and local government web resources and services.